Time,TemperatureF,DewpointF,PressureIn,WindDirection,WindDirectionDegrees,WindSpeedMPH,WindSpeedGustMPH,Humidity,HourlyPrecipIn,Conditions,Clouds,dailyrainin,SolarRadiationWatts/m^2,SoftwareType,DateUTC
2013-12-27 00:02:00,25.7,21.5,30.37,WNW,288,0.0,1.0,84,0.00,,,0.00,0,Wunderground v.1.15,2013-12-27 05:02:00,
2013-12-27 00:03:00,25.7,21.5,30.38,WNW,288,0.0,1.0,84,0.00,,,0.00,0,Wunderground v.1.15,2013-12-27 05:03:00,
2013-12-27 00:08:00,25.7,21.5,30.37,WNW,288,0.0,0.0,84,0.00,,,0.00,0,Wunderground v.1.15,2013-12-27 05:08:00,
2013-12-27 00:09:00,25.7,21.5,30.38,WNW,288,0.0,0.0,84,0.00,,,0.00,0,Wunderground v.1.15,2013-12-27 05:09:00,
2013-12-27 00:10:00,25.7,21.5,30.37,WNW,288,0.0,0.0,84,0.00,,,0.00,0,Wunderground v.1.15,2013-12-27 05:10:00,
2013-12-27 00:12:00,25.7,21.5,30.37,WNW,288,0.0,0.0,84,0.00,,,0.00,0,Wunderground v.1.15,2013-12-27 05:12:00,
2013-12-27 00:17:00,25.6,21.4,30.36,WNW,288,0.0,0.0,84,0.00,,,0.00,0,Wunderground v.1.15,2013-12-27 05:17:00,
2013-12-27 00:22:00,25.5,21.3,30.36,WNW,288,0.0,0.0,84,0.00,,,0.00,0,Wunderground v.1.15,2013-12-27 05:22:00,
2013-12-27 00:28:00,25.5,21.3,30.36,WNW,288,0.0,0.0,84,0.00,,,0.00,0,Wunderground v.1.15,2013-12-27 05:28:00,
2013-12-27 00:33:00,25.5,21.3,30.36,WNW,288,0.0,0.0,84,0.00,,,0.00,0,Wunderground v.1.15,2013-12-27 05:33:00,
2013-12-27 00:39:00,25.6,21.2,30.36,WNW,288,1.0,1.0,83,0.00,,,0.00,0,Wunderground v.1.15,2013-12-27 05:39:00,
2013-12-27 00:45:00,25.7,21.3,30.36,WNW,288,0.0,1.0,83,0.00,,,0.00,0,Wunderground v.1.15,2013-12-27 05:45:00,
2013-12-27 00:51:00,25.6,20.9,30.36,WNW,288,0.0,0.0,82,0.00,,,0.00,0,Wunderground v.1.15,2013-12-27 05:51:00,
2013-12-27 00:57:00,25.6,21.2,30.36,WNW,288,0.0,1.0,83,0.00,,,0.00,0,Wunderground v.1.15,2013-12-27 05:57:00,
2013-12-27 01:02:00,25.4,21.2,30.36,WNW,288,0.0,0.0,84,0.00,,,0.00,0,Wunderground v.1.15,2013-12-27 06:02:00,
2013-12-27 01:08:00,25.3,21.1,30.36,WNW,288,0.0,0.0,84,0.00,,,0.00,0,Wunderground v.1.15,2013-12-27 06:08:00,
2013-12-27 01:14:00,25.3,21.1,30.35,WNW,288,1.0,1.0,84,0.00,,,0.00,0,Wunderground v.1.15,2013-12-27 06:14:00,
2013-12-27 01:19:00,25.3,21.1,30.36,WNW,288,0.0,0.0,84,0.00,,,0.00,0,Wunderground v.1.15,2013-12-27 06:19:00,
2013-12-27 01:24:00,25.3,21.1,30.36,WNW,288,0.0,0.0,84,0.00,,,0.00,0,Wunderground v.1.15,2013-12-27 06:24:00,
2013-12-27 01:30:00,25.4,21.2,30.36,WNW,288,0.0,0.0,84,0.00,,,0.00,0,Wunderground v.1.15,2013-12-27 06:30:00,
2013-12-27 01:35:00,25.3,21.1,30.36,WNW,288,0.0,0.0,84,0.00,,,0.00,0,Wunderground v.1.15,2013-12-27 06:35:00,
2013-12-27 01:41:00,25.3,21.7,30.37,WNW,288,0.0,1.0,86,0.00,,,0.00,0,Wunderground v.1.15,2013-12-27 06:41:00,
2013-12-27 01:47:00,25.3,21.4,30.37,WNW,288,1.0,1.0,85,0.00,,,0.00,0,Wunderground v.1.15,2013-12-27 06:47:00,
2013-12-27 01:52:00,25.3,21.4,30.37,WNW,288,0.0,0.0,85,0.00,,,0.00,0,Wunderground v.1.15,2013-12-27 06:52:00,
2013-12-27 01:57:00,25.3,21.1,30.37,WNW,288,1.0,1.0,84,0.00,,,0.00,0,Wunderground v.1.15,2013-12-27 06:57:00,
2013-12-27 02:02:00,25.3,21.1,30.37,WNW,288,0.0,1.0,84,0.00,,,0.00,0,Wunderground v.1.15,2013-12-27 07:02:00,
2013-12-27 02:07:00,25.2,21.3,30.37,WNW,288,0.0,1.0,85,0.00,,,0.00,0,Wunderground v.1.15,2013-12-27 07:07:00,
2013-12-27 02:12:00,25.2,21.0,30.37,WNW,288,0.0,1.0,84,0.00,,,0.00,0,Wunderground v.1.15,2013-12-27 07:12:00,
2013-12-27 02:17:00,25.3,21.4,30.37,WNW,288,0.0,1.0,85,0.00,,,0.00,0,Wunderground v.1.15,2013-12-27 07:17:00,
2013-12-27 02:22:00,25.4,21.2,30.37,WNW,288,0.0,1.0,84,0.00,,,0.00,0,Wunderground v.1.15,2013-12-27 07:22:00,
2013-12-27 02:27:00,25.5,21.3,30.37,WNW,288,0.0,1.0,84,0.00,,,0.00,0,Wunderground v.1.15,2013-12-27 07:27:00,
2013-12-27 02:32:00,25.5,21.3,30.37,WNW,288,0.0,0.0,84,0.00,,,0.00,0,Wunderground v.1.15,2013-12-27 07:32:00,
2013-12-27 02:37:00,25.5,21.3,30.37,WNW,288,1.0,1.0,84,0.00,,,0.00,0,Wunderground v.1.15,2013-12-27 07:37:00,
2013-12-27 02:42:00,25.5,21.3,30.37,WNW,288,0.0,1.0,84,0.00,,,0.00,0,Wunderground v.1.15,2013-12-27 07:42:00,
2013-12-27 02:47:00,25.3,21.1,30.37,WNW,288,0.0,0.0,84,0.00,,,0.00,0,Wunderground v.1.15,2013-12-27 07:47:00,
2013-12-27 02:52:00,25.2,21.0,30.37,WNW,288,0.0,1.0,84,0.00,,,0.00,0,Wunderground v.1.15,2013-12-27 07:52:00,
2013-12-27 02:57:00,25.0,20.8,30.37,WNW,288,0.0,0.0,84,0.00,,,0.00,0,Wunderground v.1.15,2013-12-27 07:57:00,
2013-12-27 03:02:00,24.9,20.8,30.37,WNW,287,0.0,0.0,84,0.00,,,0.00,0,Wunderground v.1.15,2013-12-27 08:02:00,
2013-12-27 03:07:00,24.8,20.9,30.37,WNW,288,1.0,1.0,85,0.00,,,0.00,0,Wunderground v.1.15,2013-12-27 08:07:00,
2013-12-27 03:12:00,24.7,20.8,30.37,WNW,287,0.0,1.0,85,0.00,,,0.00,0,Wunderground v.1.15,2013-12-27 08:12:00,
2013-12-27 03:17:00,24.6,20.7,30.37,WNW,288,0.0,0.0,85,0.00,,,0.00,0,Wunderground v.1.15,2013-12-27 08:17:00,
2013-12-27 03:22:00,24.4,20.8,30.37,WNW,288,0.0,1.0,86,0.00,,,0.00,0,Wunderground v.1.15,2013-12-27 08:22:00,
2013-12-27 03:27:00,24.3,20.7,30.37,WNW,288,0.0,0.0,86,0.00,,,0.00,0,Wunderground v.1.15,2013-12-27 08:27:00,
2013-12-27 03:32:00,24.2,20.6,30.36,WNW,288,0.0,0.0,86,0.00,,,0.00,0,Wunderground v.1.15,2013-12-27 08:32:00,
2013-12-27 03:37:00,24.1,20.5,30.36,WNW,288,0.0,0.0,86,0.00,,,0.00,0,Wunderground v.1.15,2013-12-27 08:37:00,
2013-12-27 03:43:00,24.0,20.7,30.36,WNW,288,1.0,1.0,87,0.00,,,0.00,0,Wunderground v.1.15,2013-12-27 08:43:00,
2013-12-27 03:47:00,23.9,20.6,30.37,WNW,288,0.0,1.0,87,0.00,,,0.00,0,Wunderground v.1.15,2013-12-27 08:47:00,
2013-12-27 03:53:00,23.9,20.6,30.37,WNW,288,1.0,1.0,87,0.00,,,0.00,0,Wunderground v.1.15,2013-12-27 08:53:00,
2013-12-27 03:57:00,23.8,20.5,30.37,WNW,288,0.0,1.0,87,0.00,,,0.00,0,Wunderground v.1.15,2013-12-27 08:57:00,
2013-12-27 04:03:00,23.7,20.7,30.37,WNW,288,0.0,0.0,88,0.00,,,0.00,0,Wunderground v.1.15,2013-12-27 09:03:00,
2013-12-27 04:08:00,23.6,20.6,30.36,WNW,288,0.0,1.0,88,0.00,,,0.00,0,Wunderground v.1.15,2013-12-27 09:08:00,
2013-12-27 04:13:00,23.6,20.6,30.36,WNW,288,0.0,1.0,88,0.00,,,0.00,0,Wunderground v.1.15,2013-12-27 09:13:00,
2013-12-27 04:18:00,23.5,20.5,30.36,WNW,287,0.0,1.0,88,0.00,,,0.00,0,Wunderground v.1.15,2013-12-27 09:18:00,
2013-12-27 04:23:00,23.5,20.5,30.36,WNW,288,0.0,1.0,88,0.00,,,0.00,0,Wunderground v.1.15,2013-12-27 09:23:00,
2013-12-27 04:28:00,23.5,20.5,30.36,WNW,288,0.0,1.0,88,0.00,,,0.00,0,Wunderground v.1.15,2013-12-27 09:28:00,
2013-12-27 04:33:00,23.5,20.5,30.36,WNW,288,1.0,2.0,88,0.00,,,0.00,0,Wunderground v.1.15,2013-12-27 09:33:00,
2013-12-27 04:38:00,23.4,20.4,30.35,WNW,288,0.0,2.0,88,0.00,,,0.00,0,Wunderground v.1.15,2013-12-27 09:38:00,
2013-12-27 04:43:00,23.4,20.4,30.36,WNW,288,0.0,1.0,88,0.00,,,0.00,0,Wunderground v.1.15,2013-12-27 09:43:00,
2013-12-27 04:48:00,23.3,20.3,30.36,WNW,288,0.0,0.0,88,0.00,,,0.00,0,Wunderground v.1.15,2013-12-27 09:48:00,
2013-12-27 04:53:00,23.3,20.3,30.36,WNW,288,1.0,1.0,88,0.00,,,0.00,0,Wunderground v.1.15,2013-12-27 09:53:00,
2013-12-27 04:58:00,23.2,20.2,30.36,WNW,288,0.0,0.0,88,0.00,,,0.00,0,Wunderground v.1.15,2013-12-27 09:58:00,
2013-12-27 05:03:00,23.1,20.1,30.36,WNW,288,0.0,0.0,88,0.00,,,0.00,0,Wunderground v.1.15,2013-12-27 10:03:00,
2013-12-27 05:08:00,23.0,20.0,30.36,WNW,288,1.0,1.0,88,0.00,,,0.00,0,Wunderground v.1.15,2013-12-27 10:08:00,
2013-12-27 05:13:00,23.0,20.0,30.36,WNW,288,0.0,1.0,88,0.00,,,0.00,0,Wunderground v.1.15,2013-12-27 10:13:00,
2013-12-27 05:18:00,23.0,20.2,30.36,WNW,288,0.0,1.0,89,0.00,,,0.00,0,Wunderground v.1.15,2013-12-27 10:18:00,
2013-12-27 05:23:00,23.0,20.2,30.36,WNW,288,0.0,1.0,89,0.00,,,0.00,0,Wunderground v.1.15,2013-12-27 10:23:00,
2013-12-27 05:28:00,23.0,20.0,30.36,WNW,288,0.0,0.0,88,0.00,,,0.00,0,Wunderground v.1.15,2013-12-27 10:28:00,
2013-12-27 05:33:00,23.0,20.2,30.36,WNW,288,0.0,1.0,89,0.00,,,0.00,0,Wunderground v.1.15,2013-12-27 10:33:00,
2013-12-27 05:38:00,22.9,20.1,30.36,WNW,287,1.0,1.0,89,0.00,,,0.00,0,Wunderground v.1.15,2013-12-27 10:38:00,
2013-12-27 05:43:00,22.8,19.8,30.36,WNW,288,0.0,1.0,88,0.00,,,0.00,0,Wunderground v.1.15,2013-12-27 10:43:00,
2013-12-27 05:48:00,22.7,19.7,30.36,WNW,288,0.0,0.0,88,0.00,,,0.00,0,Wunderground v.1.15,2013-12-27 10:48:00,
2013-12-27 05:53:00,22.7,19.9,30.36,WNW,288,0.0,1.0,89,0.00,,,0.00,0,Wunderground v.1.15,2013-12-27 10:53:00,
2013-12-27 05:58:00,22.6,19.8,30.36,WNW,288,0.0,0.0,89,0.00,,,0.00,0,Wunderground v.1.15,2013-12-27 10:58:00,
2013-12-27 06:03:00,22.6,19.8,30.36,WNW,288,0.0,0.0,89,0.00,,,0.00,0,Wunderground v.1.15,2013-12-27 11:03:00,
2013-12-27 06:08:00,22.5,19.7,30.36,WNW,288,1.0,1.0,89,0.00,,,0.00,0,Wunderground v.1.15,2013-12-27 11:08:00,
2013-12-27 06:14:00,22.5,19.7,30.36,WNW,288,0.0,1.0,89,0.00,,,0.00,0,Wunderground v.1.15,2013-12-27 11:14:00,
2013-12-27 06:19:00,22.4,19.6,30.36,WNW,288,0.0,0.0,89,0.00,,,0.00,0,Wunderground v.1.15,2013-12-27 11:19:00,
2013-12-27 06:24:00,22.3,19.6,30.37,WNW,288,1.0,1.0,89,0.00,,,0.00,0,Wunderground v.1.15,2013-12-27 11:24:00,
2013-12-27 06:29:00,22.3,19.8,30.37,WNW,288,0.0,1.0,90,0.00,,,0.00,0,Wunderground v.1.15,2013-12-27 11:29:00,
2013-12-27 06:34:00,22.3,19.6,30.37,WNW,288,0.0,1.0,89,0.00,,,0.00,0,Wunderground v.1.15,2013-12-27 11:34:00,
2013-12-27 06:39:00,22.2,19.7,30.37,WNW,288,0.0,0.0,90,0.00,,,0.00,0,Wunderground v.1.15,2013-12-27 11:39:00,
2013-12-27 06:44:00,22.2,19.7,30.37,WNW,288,0.0,1.0,90,0.00,,,0.00,0,Wunderground v.1.15,2013-12-27 11:44:00,
2013-12-27 06:49:00,22.1,19.9,30.38,WNW,288,0.0,0.0,91,0.00,,,0.00,0,Wunderground v.1.15,2013-12-27 11:49:00,
2013-12-27 06:54:00,22.1,19.6,30.38,WNW,288,0.0,1.0,90,0.00,,,0.00,0,Wunderground v.1.15,2013-12-27 11:54:00,
2013-12-27 06:59:00,22.0,19.5,30.38,WNW,288,0.0,1.0,90,0.00,,,0.00,0,Wunderground v.1.15,2013-12-27 11:59:00,
2013-12-27 07:04:00,21.9,19.4,30.38,WNW,288,0.0,1.0,90,0.00,,,0.00,0,Wunderground v.1.15,2013-12-27 12:04:00,
2013-12-27 07:09:00,22.0,19.8,30.38,WNW,288,0.0,1.0,91,0.00,,,0.00,0,Wunderground v.1.15,2013-12-27 12:09:00,
2013-12-27 07:14:00,22.0,19.8,30.38,WNW,288,1.0,1.0,91,0.00,,,0.00,0,Wunderground v.1.15,2013-12-27 12:14:00,
2013-12-27 07:19:00,22.0,19.8,30.39,WNW,287,0.0,1.0,91,0.00,,,0.00,0,Wunderground v.1.15,2013-12-27 12:19:00,
2013-12-27 07:24:00,22.1,19.9,30.39,WNW,288,0.0,1.0,91,0.00,,,0.00,0,Wunderground v.1.15,2013-12-27 12:24:00,
2013-12-27 07:29:00,22.0,19.5,30.39,WNW,288,0.0,1.0,90,0.00,,,0.00,0,Wunderground v.1.15,2013-12-27 12:29:00,
2013-12-27 07:34:00,22.1,19.9,30.39,WNW,288,1.0,1.0,91,0.00,,,0.00,0,Wunderground v.1.15,2013-12-27 12:34:00,
2013-12-27 07:39:00,22.1,19.6,30.39,WNW,288,0.0,2.0,90,0.00,,,0.00,0,Wunderground v.1.15,2013-12-27 12:39:00,
2013-12-27 07:44:00,22.1,19.9,30.39,WNW,287,0.0,2.0,91,0.00,,,0.00,0,Wunderground v.1.15,2013-12-27 12:44:00,
2013-12-27 07:49:00,22.1,19.6,30.40,WNW,288,0.0,0.0,90,0.00,,,0.00,0,Wunderground v.1.15,2013-12-27 12:49:00,
2013-12-27 07:54:00,22.0,19.5,30.40,WNW,288,0.0,1.0,90,0.00,,,0.00,0,Wunderground v.1.15,2013-12-27 12:54:00,
2013-12-27 07:59:00,22.0,19.5,30.40,WNW,288,0.0,0.0,90,0.00,,,0.00,0,Wunderground v.1.15,2013-12-27 12:59:00,
2013-12-27 08:04:00,22.1,19.6,30.40,WNW,288,0.0,1.0,90,0.00,,,0.00,0,Wunderground v.1.15,2013-12-27 13:04:00,
2013-12-27 08:09:00,22.2,19.7,30.40,WNW,288,0.0,1.0,90,0.00,,,0.00,0,Wunderground v.1.15,2013-12-27 13:09:00,
2013-12-27 08:14:00,22.3,19.8,30.40,WNW,288,0.0,1.0,90,0.00,,,0.00,0,Wunderground v.1.15,2013-12-27 13:14:00,
2013-12-27 08:20:00,22.5,20.0,30.40,WNW,288,0.0,1.0,90,0.00,,,0.00,0,Wunderground v.1.15,2013-12-27 13:20:00,
2013-12-27 08:25:00,22.8,20.3,30.40,WNW,288,0.0,1.0,90,0.00,,,0.00,0,Wunderground v.1.15,2013-12-27 13:25:00,
2013-12-27 08:30:00,23.1,20.6,30.40,WNW,288,1.0,1.0,90,0.00,,,0.00,0,Wunderground v.1.15,2013-12-27 13:30:00,
2013-12-27 08:35:00,23.4,20.6,30.40,WNW,288,0.0,1.0,89,0.00,,,0.00,0,Wunderground v.1.15,2013-12-27 13:35:00,
2013-12-27 08:40:00,23.8,21.0,30.41,WNW,288,0.0,0.0,89,0.00,,,0.00,0,Wunderground v.1.15,2013-12-27 13:40:00,
2013-12-27 08:45:00,24.2,21.2,30.40,WNW,288,1.0,2.0,88,0.00,,,0.00,0,Wunderground v.1.15,2013-12-27 13:45:00,
2013-12-27 08:50:00,24.8,21.8,30.40,WNW,288,1.0,1.0,88,0.00,,,0.00,0,Wunderground v.1.15,2013-12-27 13:50:00,
2013-12-27 08:55:00,25.3,22.2,30.40,WNW,288,0.0,1.0,88,0.00,,,0.00,0,Wunderground v.1.15,2013-12-27 13:55:00,
2013-12-27 09:00:00,25.9,22.6,30.40,WNW,288,0.0,0.0,87,0.00,,,0.00,0,Wunderground v.1.15,2013-12-27 14:00:00,
2013-12-27 09:05:00,26.9,24.1,30.40,WNW,288,0.0,1.0,89,0.00,,,0.00,0,Wunderground v.1.15,2013-12-27 14:05:00,
2013-12-27 09:10:00,27.9,24.5,30.41,WSW,252,0.0,1.0,87,0.00,,,0.00,0,Wunderground v.1.15,2013-12-27 14:10:00,
2013-12-27 09:15:00,28.5,23.7,30.41,WSW,252,2.0,2.0,82,0.00,,,0.00,0,Wunderground v.1.15,2013-12-27 14:15:00,
2013-12-27 09:20:00,29.3,24.2,30.41,WSW,258,0.0,2.0,81,0.00,,,0.00,0,Wunderground v.1.15,2013-12-27 14:20:00,
2013-12-27 09:25:00,30.1,24.7,30.41,WNW,283,0.0,2.0,80,0.00,,,0.00,0,Wunderground v.1.15,2013-12-27 14:25:00,
2013-12-27 09:30:00,31.0,25.2,30.42,WNW,286,0.0,1.0,79,0.00,,,0.00,0,Wunderground v.1.15,2013-12-27 14:30:00,
2013-12-27 09:35:00,31.9,25.8,30.42,WNW,287,0.0,1.0,78,0.00,,,0.00,0,Wunderground v.1.15,2013-12-27 14:35:00,
2013-12-27 09:40:00,33.2,25.1,30.42,WNW,287,2.0,2.0,72,0.00,,,0.00,0,Wunderground v.1.15,2013-12-27 14:40:00,
2013-12-27 09:45:00,33.7,26.0,30.42,WNW,287,0.0,2.0,73,0.00,,,0.00,0,Wunderground v.1.15,2013-12-27 14:45:00,
2013-12-27 09:50:00,34.3,25.2,30.42,WNW,287,0.0,2.0,69,0.00,,,0.00,0,Wunderground v.1.15,2013-12-27 14:50:00,
2013-12-27 09:55:00,35.5,26.3,30.42,WNW,287,0.0,2.0,69,0.00,,,0.00,0,Wunderground v.1.15,2013-12-27 14:55:00,
2013-12-27 10:00:00,35.8,25.2,30.43,WNW,287,0.0,3.0,65,0.00,,,0.00,0,Wunderground v.1.15,2013-12-27 15:00:00,
2013-12-27 10:05:00,36.1,25.5,30.43,WNW,287,1.0,3.0,65,0.00,,,0.00,0,Wunderground v.1.15,2013-12-27 15:05:00,
2013-12-27 10:10:00,37.5,26.4,30.43,WNW,287,0.0,0.0,64,0.00,,,0.00,0,Wunderground v.1.15,2013-12-27 15:10:00,
2013-12-27 10:15:00,38.1,26.6,30.43,WNW,287,0.0,1.0,63,0.00,,,0.00,0,Wunderground v.1.15,2013-12-27 15:15:00,
2013-12-27 10:20:00,38.9,26.2,30.43,WNW,287,0.0,3.0,60,0.00,,,0.00,0,Wunderground v.1.15,2013-12-27 15:20:00,
2013-12-27 10:25:00,39.3,27.0,30.43,SW,225,0.0,3.0,61,0.00,,,0.00,0,Wunderground v.1.15,2013-12-27 15:25:00,
2013-12-27 10:30:00,40.1,27.3,30.43,SSW,206,1.0,3.0,60,0.00,,,0.00,0,Wunderground v.1.15,2013-12-27 15:30:00,
2013-12-27 10:35:00,40.8,27.2,30.43,South,174,2.0,4.0,58,0.00,,,0.00,0,Wunderground v.1.15,2013-12-27 15:35:00,
2013-12-27 10:40:00,40.8,27.2,30.43,NW,326,0.0,3.0,58,0.00,,,0.00,0,Wunderground v.1.15,2013-12-27 15:40:00,
2013-12-27 10:45:00,41.2,27.5,30.43,NNW,327,1.0,3.0,58,0.00,,,0.00,0,Wunderground v.1.15,2013-12-27 15:45:00,
2013-12-27 10:50:00,41.0,24.7,30.43,West,281,5.0,7.0,52,0.00,,,0.00,0,Wunderground v.1.15,2013-12-27 15:50:00,
2013-12-27 10:55:00,40.3,25.4,30.43,WNW,282,3.0,7.0,55,0.00,,,0.00,0,Wunderground v.1.15,2013-12-27 15:55:00,
2013-12-27 11:00:00,41.0,26.9,30.43,SSE,154,1.0,3.0,57,0.00,,,0.00,0,Wunderground v.1.15,2013-12-27 16:00:00,
2013-12-27 11:05:00,41.7,26.7,30.43,SSW,199,0.0,4.0,55,0.00,,,0.00,0,Wunderground v.1.15,2013-12-27 16:05:00,
2013-12-27 11:10:00,42.2,26.7,30.42,SSW,213,2.0,2.0,54,0.00,,,0.00,0,Wunderground v.1.15,2013-12-27 16:10:00,
2013-12-27 11:15:00,42.5,27.0,30.42,SSW,207,1.0,3.0,54,0.00,,,0.00,0,Wunderground v.1.15,2013-12-27 16:15:00,
2013-12-27 11:20:00,42.7,27.6,30.43,WSW,239,0.0,3.0,55,0.00,,,0.00,0,Wunderground v.1.15,2013-12-27 16:20:00,
2013-12-27 11:25:00,43.1,28.0,30.42,SW,215,3.0,3.0,55,0.00,,,0.00,0,Wunderground v.1.15,2013-12-27 16:25:00,
2013-12-27 11:30:00,43.5,27.5,30.42,South,188,1.0,3.0,53,0.00,,,0.00,0,Wunderground v.1.15,2013-12-27 16:30:00,
2013-12-27 11:35:00,43.6,26.6,30.42,SW,218,2.0,4.0,51,0.00,,,0.00,0,Wunderground v.1.15,2013-12-27 16:35:00,
2013-12-27 11:40:00,43.5,27.0,30.42,SW,218,1.0,3.0,52,0.00,,,0.00,0,Wunderground v.1.15,2013-12-27 16:40:00,
2013-12-27 11:45:00,43.3,26.8,30.42,SW,217,2.0,3.0,52,0.00,,,0.00,0,Wunderground v.1.15,2013-12-27 16:45:00,
2013-12-27 11:50:00,43.2,27.2,30.41,West,279,4.0,4.0,53,0.00,,,0.00,0,Wunderground v.1.15,2013-12-27 16:50:00,
2013-12-27 11:55:00,43.3,25.9,30.41,SW,225,3.0,5.0,50,0.00,,,0.00,0,Wunderground v.1.15,2013-12-27 16:55:00,
2013-12-27 12:00:00,43.4,26.0,30.41,WSW,243,1.0,2.0,50,0.00,,,0.00,0,Wunderground v.1.15,2013-12-27 17:00:00,
2013-12-27 12:05:00,44.0,27.0,30.40,SE,144,1.0,3.0,51,0.00,,,0.00,0,Wunderground v.1.15,2013-12-27 17:05:00,
2013-12-27 12:10:00,44.3,25.8,30.40,SW,223,5.0,5.0,48,0.00,,,0.00,0,Wunderground v.1.15,2013-12-27 17:10:00,
2013-12-27 12:15:00,44.2,25.7,30.40,SW,232,2.0,5.0,48,0.00,,,0.00,0,Wunderground v.1.15,2013-12-27 17:15:00,
2013-12-27 12:20:00,44.4,25.9,30.39,SSE,156,1.0,3.0,48,0.00,,,0.00,0,Wunderground v.1.15,2013-12-27 17:20:00,
2013-12-27 12:25:00,44.7,26.7,30.39,SE,144,1.0,5.0,49,0.00,,,0.00,0,Wunderground v.1.15,2013-12-27 17:25:00,
2013-12-27 12:30:00,45.1,27.1,30.39,SE,142,2.0,4.0,49,0.00,,,0.00,0,Wunderground v.1.15,2013-12-27 17:30:00,
2013-12-27 12:36:00,45.6,26.5,30.38,SE,138,2.0,7.0,47,0.00,,,0.00,0,Wunderground v.1.15,2013-12-27 17:36:00,
2013-12-27 12:41:00,45.7,26.1,30.38,SW,236,2.0,3.0,46,0.00,,,0.00,0,Wunderground v.1.15,2013-12-27 17:41:00,
2013-12-27 12:46:00,45.7,26.6,30.38,SW,228,1.0,3.0,47,0.00,,,0.00,0,Wunderground v.1.15,2013-12-27 17:46:00,
2013-12-27 12:51:00,45.9,26.8,30.38,SE,143,4.0,4.0,47,0.00,,,0.00,0,Wunderground v.1.15,2013-12-27 17:51:00,
2013-12-27 12:56:00,46.3,27.2,30.38,SE,141,2.0,4.0,47,0.00,,,0.00,0,Wunderground v.1.15,2013-12-27 17:56:00,
2013-12-27 13:01:00,46.5,27.3,30.37,SE,141,3.0,4.0,47,0.00,,,0.00,0,Wunderground v.1.15,2013-12-27 18:01:00,
2013-12-27 13:06:00,46.7,27.5,30.37,SE,141,2.0,4.0,47,0.00,,,0.00,0,Wunderground v.1.15,2013-12-27 18:06:00,
2013-12-27 13:11:00,46.9,27.7,30.37,SE,136,0.0,4.0,47,0.00,,,0.00,0,Wunderground v.1.15,2013-12-27 18:11:00,
2013-12-27 13:16:00,47.1,27.4,30.36,SE,136,2.0,4.0,46,0.00,,,0.00,0,Wunderground v.1.15,2013-12-27 18:16:00,
2013-12-27 13:21:00,47.3,27.5,30.36,SE,131,1.0,3.0,46,0.00,,,0.00,0,Wunderground v.1.15,2013-12-27 18:21:00,
2013-12-27 13:26:00,47.3,26.5,30.36,SE,139,6.0,6.0,44,0.00,,,0.00,0,Wunderground v.1.15,2013-12-27 18:26:00,
2013-12-27 13:31:00,47.4,25.4,30.36,SSW,196,2.0,8.0,42,0.00,,,0.00,0,Wunderground v.1.15,2013-12-27 18:31:00,
2013-12-27 13:36:00,47.6,26.7,30.36,SSW,192,1.0,8.0,44,0.00,,,0.00,0,Wunderground v.1.15,2013-12-27 18:36:00,
2013-12-27 13:41:00,47.8,25.2,30.36,West,259,3.0,3.0,41,0.00,,,0.00,0,Wunderground v.1.15,2013-12-27 18:41:00,
2013-12-27 13:46:00,47.8,26.4,30.35,SE,137,2.0,4.0,43,0.00,,,0.00,0,Wunderground v.1.15,2013-12-27 18:46:00,
2013-12-27 13:51:00,47.9,26.5,30.35,SE,132,2.0,4.0,43,0.00,,,0.00,0,Wunderground v.1.15,2013-12-27 18:51:00,
2013-12-27 13:56:00,48.1,24.9,30.35,SW,233,1.0,4.0,40,0.00,,,0.00,0,Wunderground v.1.15,2013-12-27 18:56:00,
2013-12-27 14:01:00,48.3,26.8,30.35,SE,145,1.0,4.0,43,0.00,,,0.00,0,Wunderground v.1.15,2013-12-27 19:01:00,
2013-12-27 14:06:00,48.5,25.8,30.35,SE,140,1.0,4.0,41,0.00,,,0.00,0,Wunderground v.1.15,2013-12-27 19:06:00,
2013-12-27 14:11:00,48.5,25.2,30.34,ESE,108,3.0,4.0,40,0.00,,,0.00,0,Wunderground v.1.15,2013-12-27 19:11:00,
2013-12-27 14:16:00,48.5,25.2,30.34,SE,130,1.0,7.0,40,0.00,,,0.00,0,Wunderground v.1.15,2013-12-27 19:16:00,
2013-12-27 14:21:00,48.6,24.7,30.34,ESE,121,3.0,3.0,39,0.00,,,0.00,0,Wunderground v.1.15,2013-12-27 19:21:00,
2013-12-27 14:26:00,48.8,25.5,30.34,ESE,123,1.0,3.0,40,0.00,,,0.00,0,Wunderground v.1.15,2013-12-27 19:26:00,
2013-12-27 14:31:00,48.8,24.9,30.34,SSE,147,4.0,4.0,39,0.00,,,0.00,0,Wunderground v.1.15,2013-12-27 19:31:00,
2013-12-27 14:36:00,48.8,25.5,30.34,SE,131,2.0,5.0,40,0.00,,,0.00,0,Wunderground v.1.15,2013-12-27 19:36:00,
2013-12-27 14:41:00,49.0,25.1,30.34,SE,131,3.0,4.0,39,0.00,,,0.00,0,Wunderground v.1.15,2013-12-27 19:41:00,
2013-12-27 14:46:00,49.0,25.1,30.34,SE,131,1.0,4.0,39,0.00,,,0.00,0,Wunderground v.1.15,2013-12-27 19:46:00,
2013-12-27 14:51:00,49.1,25.2,30.33,SE,131,1.0,4.0,39,0.00,,,0.00,0,Wunderground v.1.15,2013-12-27 19:51:00,
2013-12-27 14:56:00,49.0,22.5,30.34,SW,235,1.0,6.0,35,0.00,,,0.00,0,Wunderground v.1.15,2013-12-27 19:56:00,
2013-12-27 15:01:00,49.0,23.2,30.33,SE,136,1.0,5.0,36,0.00,,,0.00,0,Wunderground v.1.15,2013-12-27 20:01:00,
2013-12-27 15:06:00,49.0,23.8,30.33,SE,136,3.0,6.0,37,0.00,,,0.00,0,Wunderground v.1.15,2013-12-27 20:06:00,
2013-12-27 15:11:00,48.9,24.4,30.33,SE,125,2.0,6.0,38,0.00,,,0.00,0,Wunderground v.1.15,2013-12-27 20:11:00,
2013-12-27 15:16:00,48.9,24.4,30.33,SE,131,1.0,6.0,38,0.00,,,0.00,0,Wunderground v.1.15,2013-12-27 20:16:00,
2013-12-27 15:21:00,48.9,24.4,30.33,SE,131,2.0,3.0,38,0.00,,,0.00,0,Wunderground v.1.15,2013-12-27 20:21:00,
2013-12-27 15:26:00,48.8,24.3,30.33,SE,131,2.0,3.0,38,0.00,,,0.00,0,Wunderground v.1.15,2013-12-27 20:26:00,
2013-12-27 15:32:00,48.8,23.6,30.33,SE,131,0.0,3.0,37,0.00,,,0.00,0,Wunderground v.1.15,2013-12-27 20:32:00,
2013-12-27 15:37:00,48.7,24.2,30.33,SE,125,1.0,3.0,38,0.00,,,0.00,0,Wunderground v.1.15,2013-12-27 20:37:00,
2013-12-27 15:42:00,48.7,24.2,30.33,SSW,199,0.0,2.0,38,0.00,,,0.00,0,Wunderground v.1.15,2013-12-27 20:42:00,
2013-12-27 15:47:00,48.7,24.2,30.33,South,169,2.0,3.0,38,0.00,,,0.00,0,Wunderground v.1.15,2013-12-27 20:47:00,
2013-12-27 15:52:00,48.8,22.3,30.33,East,97,2.0,4.0,35,0.00,,,0.00,0,Wunderground v.1.15,2013-12-27 20:52:00,
2013-12-27 15:57:00,48.8,21.6,30.33,SE,134,4.0,4.0,34,0.00,,,0.00,0,Wunderground v.1.15,2013-12-27 20:57:00,
2013-12-27 16:02:00,48.7,21.5,30.32,SSE,155,2.0,4.0,34,0.00,,,0.00,0,Wunderground v.1.15,2013-12-27 21:02:00,
2013-12-27 16:07:00,48.6,21.5,30.33,SE,126,2.0,5.0,34,0.00,,,0.00,0,Wunderground v.1.15,2013-12-27 21:07:00,
2013-12-27 16:12:00,48.6,21.5,30.32,ESE,120,2.0,4.0,34,0.00,,,0.00,0,Wunderground v.1.15,2013-12-27 21:12:00,
2013-12-27 16:18:00,48.3,21.2,30.33,SE,124,3.0,3.0,34,0.00,,,0.00,0,Wunderground v.1.15,2013-12-27 21:18:00,
2013-12-27 16:23:00,48.1,21.7,30.33,SE,128,0.0,3.0,35,0.00,,,0.00,0,Wunderground v.1.15,2013-12-27 21:23:00,
2013-12-27 16:28:00,47.8,22.1,30.32,SE,128,0.0,0.0,36,0.00,,,0.00,0,Wunderground v.1.15,2013-12-27 21:28:00,
2013-12-27 16:33:00,47.4,21.7,30.32,SE,129,2.0,3.0,36,0.00,,,0.00,0,Wunderground v.1.15,2013-12-27 21:33:00,
2013-12-27 16:38:00,47.2,21.6,30.32,SE,129,2.0,2.0,36,0.00,,,0.00,0,Wunderground v.1.15,2013-12-27 21:38:00,
2013-12-27 16:43:00,47.0,21.4,30.32,SE,129,2.0,3.0,36,0.00,,,0.00,0,Wunderground v.1.15,2013-12-27 21:43:00,
2013-12-27 16:48:00,46.7,22.4,30.33,SE,129,0.0,1.0,38,0.00,,,0.00,0,Wunderground v.1.15,2013-12-27 21:48:00,
2013-12-27 16:53:00,46.2,22.0,30.33,SE,128,1.0,2.0,38,0.00,,,0.00,0,Wunderground v.1.15,2013-12-27 21:53:00,
2013-12-27 16:58:00,46.0,21.8,30.33,East,83,0.0,1.0,38,0.00,,,0.00,0,Wunderground v.1.15,2013-12-27 21:58:00,
2013-12-27 17:03:00,45.6,22.6,30.33,East,83,1.0,2.0,40,0.00,,,0.00,0,Wunderground v.1.15,2013-12-27 22:03:00,
2013-12-27 17:08:00,44.9,22.0,30.33,ESE,107,0.0,1.0,40,0.00,,,0.00,0,Wunderground v.1.15,2013-12-27 22:08:00,
2013-12-27 17:13:00,44.4,23.3,30.33,ESE,107,1.0,2.0,43,0.00,,,0.00,0,Wunderground v.1.15,2013-12-27 22:13:00,
2013-12-27 17:18:00,44.1,21.3,30.33,ESE,106,1.0,1.0,40,0.00,,,0.00,0,Wunderground v.1.15,2013-12-27 22:18:00,
2013-12-27 17:23:00,44.1,21.3,30.33,ESE,106,0.0,3.0,40,0.00,,,0.00,0,Wunderground v.1.15,2013-12-27 22:23:00,
2013-12-27 17:28:00,43.8,22.2,30.34,ESE,106,1.0,2.0,42,0.00,,,0.00,0,Wunderground v.1.15,2013-12-27 22:28:00,
2013-12-27 17:33:00,43.2,23.3,30.34,ESE,105,1.0,2.0,45,0.00,,,0.00,0,Wunderground v.1.15,2013-12-27 22:33:00,
2013-12-27 17:38:00,42.3,24.5,30.34,ESE,105,1.0,1.0,49,0.00,,,0.00,0,Wunderground v.1.15,2013-12-27 22:38:00,
2013-12-27 17:43:00,41.5,24.2,30.33,ESE,104,0.0,2.0,50,0.00,,,0.00,0,Wunderground v.1.15,2013-12-27 22:43:00,
2013-12-27 17:48:00,40.8,24.5,30.34,ESE,104,0.0,0.0,52,0.00,,,0.00,0,Wunderground v.1.15,2013-12-27 22:48:00,
2013-12-27 17:53:00,40.1,24.8,30.34,ESE,103,0.0,1.0,54,0.00,,,0.00,0,Wunderground v.1.15,2013-12-27 22:53:00,
2013-12-27 17:58:00,39.6,24.3,30.33,ESE,103,1.0,2.0,54,0.00,,,0.00,0,Wunderground v.1.15,2013-12-27 22:58:00,
2013-12-27 18:03:00,39.0,24.2,30.33,ESE,104,2.0,2.0,55,0.00,,,0.00,0,Wunderground v.1.15,2013-12-27 23:03:00,
2013-12-27 18:08:00,38.6,23.8,30.33,ESE,104,1.0,1.0,55,0.00,,,0.00,0,Wunderground v.1.15,2013-12-27 23:08:00,
2013-12-27 18:13:00,38.2,23.9,30.33,ESE,103,0.0,2.0,56,0.00,,,0.00,0,Wunderground v.1.15,2013-12-27 23:13:00,
2013-12-27 18:18:00,37.7,23.8,30.33,ESE,103,0.0,0.0,57,0.00,,,0.00,0,Wunderground v.1.15,2013-12-27 23:18:00,
2013-12-27 18:23:00,37.3,24.3,30.33,ESE,103,1.0,2.0,59,0.00,,,0.00,0,Wunderground v.1.15,2013-12-27 23:23:00,
2013-12-27 18:28:00,36.9,23.9,30.33,SE,125,0.0,1.0,59,0.00,,,0.00,0,Wunderground v.1.15,2013-12-27 23:28:00,
2013-12-27 18:33:00,36.5,23.9,30.34,SE,124,0.0,1.0,60,0.00,,,0.00,0,Wunderground v.1.15,2013-12-27 23:33:00,
2013-12-27 18:38:00,36.2,24.0,30.33,SE,124,2.0,2.0,61,0.00,,,0.00,0,Wunderground v.1.15,2013-12-27 23:38:00,
2013-12-27 18:43:00,35.9,23.7,30.34,SE,124,0.0,2.0,61,0.00,,,0.00,0,Wunderground v.1.15,2013-12-27 23:43:00,
2013-12-27 18:48:00,35.6,24.2,30.34,ESE,122,0.0,0.0,63,0.00,,,0.00,0,Wunderground v.1.15,2013-12-27 23:48:00,
2013-12-27 18:53:00,35.3,24.0,30.34,ESE,123,1.0,2.0,63,0.00,,,0.00,0,Wunderground v.1.15,2013-12-27 23:53:00,
2013-12-27 18:58:00,35.0,23.7,30.34,SE,124,0.0,1.0,63,0.00,,,0.00,0,Wunderground v.1.15,2013-12-27 23:58:00,
2013-12-27 19:03:00,34.7,23.8,30.34,ESE,123,0.0,2.0,64,0.00,,,0.00,0,Wunderground v.1.15,2013-12-28 00:03:00,
2013-12-27 19:08:00,34.4,24.2,30.34,SE,124,0.0,1.0,66,0.00,,,0.00,0,Wunderground v.1.15,2013-12-28 00:08:00,
2013-12-27 19:13:00,34.2,24.0,30.34,ESE,123,0.0,1.0,66,0.00,,,0.00,0,Wunderground v.1.15,2013-12-28 00:13:00,
2013-12-27 19:18:00,34.0,23.8,30.34,ESE,121,0.0,0.0,66,0.00,,,0.00,0,Wunderground v.1.15,2013-12-28 00:18:00,
2013-12-27 19:23:00,33.7,23.5,30.34,ESE,121,0.0,2.0,66,0.00,,,0.00,0,Wunderground v.1.15,2013-12-28 00:23:00,
2013-12-27 19:28:00,33.5,23.7,30.34,ESE,123,0.0,0.0,67,0.00,,,0.00,0,Wunderground v.1.15,2013-12-28 00:28:00,
2013-12-27 19:33:00,33.3,23.9,30.34,ESE,122,0.0,1.0,68,0.00,,,0.00,0,Wunderground v.1.15,2013-12-28 00:33:00,
2013-12-27 19:38:00,33.1,23.3,30.34,ESE,122,0.0,0.0,67,0.00,,,0.00,0,Wunderground v.1.15,2013-12-28 00:38:00,
2013-12-27 19:43:00,32.9,23.5,30.34,SE,124,1.0,1.0,68,0.00,,,0.00,0,Wunderground v.1.15,2013-12-28 00:43:00,
2013-12-27 19:48:00,32.7,23.6,30.34,SE,124,1.0,1.0,69,0.00,,,0.00,0,Wunderground v.1.15,2013-12-28 00:48:00,
2013-12-27 19:53:00,32.4,23.7,30.34,SE,124,0.0,1.0,70,0.00,,,0.00,0,Wunderground v.1.15,2013-12-28 00:53:00,
2013-12-27 19:58:00,32.1,23.8,30.34,ESE,123,0.0,0.0,71,0.00,,,0.00,0,Wunderground v.1.15,2013-12-28 00:58:00,
2013-12-27 20:03:00,31.9,23.6,30.34,SE,125,0.0,0.0,71,0.00,,,0.00,0,Wunderground v.1.15,2013-12-28 01:03:00,
2013-12-27 20:07:00,31.8,23.5,30.34,SE,125,0.0,0.0,71,0.00,,,0.00,0,Wunderground v.1.15,2013-12-28 01:07:00,
2013-12-27 20:12:00,31.6,23.6,30.33,SE,125,0.0,0.0,72,0.00,,,0.00,0,Wunderground v.1.15,2013-12-28 01:12:00,
2013-12-27 20:17:00,31.4,23.4,30.34,SE,125,0.0,0.0,72,0.00,,,0.00,0,Wunderground v.1.15,2013-12-28 01:17:00,
2013-12-27 20:22:00,31.2,23.5,30.34,SE,124,0.0,0.0,73,0.00,,,0.00,0,Wunderground v.1.15,2013-12-28 01:22:00,
2013-12-27 20:27:00,31.1,23.5,30.34,SE,124,0.0,0.0,73,0.00,,,0.00,0,Wunderground v.1.15,2013-12-28 01:27:00,
2013-12-27 20:32:00,31.0,23.4,30.34,SE,124,0.0,0.0,73,0.00,,,0.00,0,Wunderground v.1.15,2013-12-28 01:32:00,
2013-12-27 20:37:00,30.8,23.5,30.34,ESE,122,0.0,0.0,74,0.00,,,0.00,0,Wunderground v.1.15,2013-12-28 01:37:00,
2013-12-27 20:42:00,30.7,23.7,30.34,ESE,122,0.0,1.0,75,0.00,,,0.00,0,Wunderground v.1.15,2013-12-28 01:42:00,
2013-12-27 20:47:00,30.6,23.6,30.34,ESE,122,0.0,1.0,75,0.00,,,0.00,0,Wunderground v.1.15,2013-12-28 01:47:00,
2013-12-27 20:52:00,30.5,23.5,30.34,SE,124,1.0,1.0,75,0.00,,,0.00,0,Wunderground v.1.15,2013-12-28 01:52:00,
2013-12-27 20:57:00,30.4,23.4,30.33,ESE,123,0.0,0.0,75,0.00,,,0.00,0,Wunderground v.1.15,2013-12-28 01:57:00,
2013-12-27 21:02:00,30.3,23.6,30.33,SE,124,0.0,1.0,76,0.00,,,0.00,0,Wunderground v.1.15,2013-12-28 02:02:00,
2013-12-27 21:08:00,30.1,23.4,30.33,SE,124,0.0,0.0,76,0.00,,,0.00,0,Wunderground v.1.15,2013-12-28 02:08:00,
2013-12-27 21:12:00,29.9,23.6,30.33,SE,125,0.0,1.0,77,0.00,,,0.00,0,Wunderground v.1.15,2013-12-28 02:12:00,
2013-12-27 21:17:00,29.8,23.5,30.33,SE,125,0.0,1.0,77,0.00,,,0.00,0,Wunderground v.1.15,2013-12-28 02:17:00,
2013-12-27 21:22:00,29.7,23.4,30.33,SE,125,0.0,1.0,77,0.00,,,0.00,0,Wunderground v.1.15,2013-12-28 02:22:00,
2013-12-27 21:27:00,29.7,23.4,30.33,SE,125,0.0,0.0,77,0.00,,,0.00,0,Wunderground v.1.15,2013-12-28 02:27:00,
2013-12-27 21:33:00,29.6,23.3,30.33,SE,125,0.0,0.0,77,0.00,,,0.00,0,Wunderground v.1.15,2013-12-28 02:33:00,
2013-12-27 21:38:00,29.5,23.2,30.33,SE,125,0.0,0.0,77,0.00,,,0.00,0,Wunderground v.1.15,2013-12-28 02:38:00,
2013-12-27 21:43:00,29.5,23.2,30.33,SE,125,0.0,0.0,77,0.00,,,0.00,0,Wunderground v.1.15,2013-12-28 02:43:00,
2013-12-27 21:48:00,29.4,23.1,30.33,SE,125,0.0,0.0,77,0.00,,,0.00,0,Wunderground v.1.15,2013-12-28 02:48:00,
2013-12-27 21:53:00,29.4,23.1,30.33,SE,126,0.0,0.0,77,0.00,,,0.00,0,Wunderground v.1.15,2013-12-28 02:53:00,
2013-12-27 21:58:00,29.2,22.9,30.34,SE,126,0.0,0.0,77,0.00,,,0.00,0,Wunderground v.1.15,2013-12-28 02:58:00,
2013-12-27 22:03:00,29.2,23.2,30.34,SE,125,0.0,2.0,78,0.00,,,0.00,0,Wunderground v.1.15,2013-12-28 03:03:00,
2013-12-27 22:08:00,29.1,23.1,30.33,SE,125,0.0,1.0,78,0.00,,,0.00,0,Wunderground v.1.15,2013-12-28 03:08:00,
2013-12-27 22:13:00,29.1,23.4,30.33,SE,126,2.0,2.0,79,0.00,,,0.00,0,Wunderground v.1.15,2013-12-28 03:13:00,
2013-12-27 22:18:00,29.1,23.4,30.34,SE,125,2.0,2.0,79,0.00,,,0.00,0,Wunderground v.1.15,2013-12-28 03:18:00,
2013-12-27 22:23:00,29.0,23.3,30.34,SE,126,0.0,2.0,79,0.00,,,0.00,0,Wunderground v.1.15,2013-12-28 03:23:00,
2013-12-27 22:28:00,28.9,23.2,30.33,SE,125,0.0,2.0,79,0.00,,,0.00,0,Wunderground v.1.15,2013-12-28 03:28:00,
2013-12-27 22:33:00,28.9,23.2,30.34,SE,126,0.0,2.0,79,0.00,,,0.00,0,Wunderground v.1.15,2013-12-28 03:33:00,
2013-12-27 22:38:00,28.7,23.3,30.33,SE,126,1.0,2.0,80,0.00,,,0.00,0,Wunderground v.1.15,2013-12-28 03:38:00,
2013-12-27 22:43:00,28.6,23.5,30.34,SE,126,1.0,2.0,81,0.00,,,0.00,0,Wunderground v.1.15,2013-12-28 03:43:00,
2013-12-27 22:48:00,28.5,23.1,30.34,SE,126,0.0,2.0,80,0.00,,,0.00,0,Wunderground v.1.15,2013-12-28 03:48:00,
2013-12-27 22:53:00,28.4,23.3,30.34,SE,126,0.0,1.0,81,0.00,,,0.00,0,Wunderground v.1.15,2013-12-28 03:53:00,
2013-12-27 22:58:00,28.3,23.2,30.34,SE,126,0.0,1.0,81,0.00,,,0.00,0,Wunderground v.1.15,2013-12-28 03:58:00,
2013-12-27 23:03:00,28.2,23.4,30.33,SE,127,0.0,1.0,82,0.00,,,0.00,0,Wunderground v.1.15,2013-12-28 04:03:00,
2013-12-27 23:08:00,28.1,23.0,30.33,SE,129,1.0,1.0,81,0.00,,,0.00,0,Wunderground v.1.15,2013-12-28 04:08:00,
2013-12-27 23:13:00,28.0,23.5,30.33,SE,130,0.0,1.0,83,0.00,,,0.00,0,Wunderground v.1.15,2013-12-28 04:13:00,
2013-12-27 23:18:00,27.9,23.1,30.33,SE,130,0.0,1.0,82,0.00,,,0.00,0,Wunderground v.1.15,2013-12-28 04:18:00,
2013-12-27 23:23:00,27.8,23.3,30.33,SE,130,0.0,1.0,83,0.00,,,0.00,0,Wunderground v.1.15,2013-12-28 04:23:00,
2013-12-27 23:28:00,27.7,23.2,30.32,SE,130,0.0,1.0,83,0.00,,,0.00,0,Wunderground v.1.15,2013-12-28 04:28:00,
2013-12-27 23:33:00,27.6,23.1,30.32,SE,131,0.0,1.0,83,0.00,,,0.00,0,Wunderground v.1.15,2013-12-28 04:33:00,
2013-12-27 23:38:00,27.5,23.0,30.32,SE,131,0.0,1.0,83,0.00,,,0.00,0,Wunderground v.1.15,2013-12-28 04:38:00,
2013-12-27 23:43:00,27.4,22.9,30.32,SE,131,0.0,1.0,83,0.00,,,0.00,0,Wunderground v.1.15,2013-12-28 04:43:00,
2013-12-27 23:48:00,27.3,22.8,30.32,SE,131,0.0,0.0,83,0.00,,,0.00,0,Wunderground v.1.15,2013-12-28 04:48:00,
2013-12-27 23:53:00,27.1,22.6,30.32,SE,132,1.0,1.0,83,0.00,,,0.00,0,Wunderground v.1.15,2013-12-28 04:53:00,
2013-12-27 23:58:00,27.0,22.8,30.32,SE,131,0.0,0.0,84,0.00,,,0.00,0,Wunderground v.1.15,2013-12-28 04:58:00,